Weather History for Rocky Mount, NC

Change the Weather History Date:

Thursday, March 8, 2012

  Actual Average Record
Temperature  
Mean Temperature 62 °F -  
Max Temperature 73 °F 59 °F 87 °F (1974)
Min Temperature 50 °F 36 °F 15 °F (1986)
Degree Days  
Heating Degree Days 4    
Growing Degree Days 12 (Base 50)    
Moisture  
Dew Point 51 °F    
Average Humidity 67    
Maximum Humidity 93    
Minimum Humidity 41    
Precipitation  
Precipitation 0.00 in - - ()
Sea Level Pressure  
Sea Level Pressure 30.31 in    
Wind  
Wind Speed 9 mph (South)    
Max Wind Speed 18 mph    
Max Gust Speed 25 mph    
Visibility 10 miles    
Events      
Averages and records for this station are not official NWS values.
T = Trace of Precipitation, MM = Missing Value Source: NWS Daily Summary

Daily Weather History Graph

Daily Weather History Graph

Search for Another Location

Airport:

Trip Planner

Search our weather history database for the weather conditions in past years. The results will help you decide how hot, cold, wet, or windy it might be!

Date:

Astronomy

Mar. 08, 2012 Rise Set
Actual Time 6:31 AM EST 6:13 PM EST
Civil Twilight 6:06 AM EST 6:38 PM EST
Nautical Twilight 5:36 AM EST 7:08 PM EST
Astronomical Twilight 5:06 AM EST 7:38 PM EST
Moon 6:55 PM EST (3/8) 6:16 AM EST (3/8)
Length of Visible Light 12h 32m
Length of Day
11h 41m
Full, 100% of the Moon is Illuminated
Mar 8
Full
Mar 14
Last Quarter
Mar 22
New
Mar 30
First Quarter
Apr 6
Full

Hourly Weather History & Observations

Time (EST) Temp. Dew Point Humidity Pressure Visibility Wind Dir Wind Speed Gust Speed Precip Events Conditions
12:53 AM 53.1 °F 48.0 °F 83% 30.46 in 10.0 mi South 6.9 mph - N/A   Clear
1:53 AM 53.1 °F 48.0 °F 83% 30.46 in 10.0 mi SSE 4.6 mph - N/A   Clear
2:53 AM 53.1 °F 48.0 °F 83% 30.43 in 10.0 mi SSE 4.6 mph - N/A   Clear
3:53 AM 52.0 °F 48.0 °F 86% 30.41 in 10.0 mi SSE 4.6 mph - N/A   Clear
4:53 AM 50.0 °F 48.0 °F 93% 30.42 in 10.0 mi South 4.6 mph - N/A   Partly Cloudy
5:53 AM 52.0 °F 48.9 °F 89% 30.43 in 10.0 mi South 4.6 mph - N/A   Partly Cloudy
6:53 AM 52.0 °F 50.0 °F 93% 30.43 in 10.0 mi South 4.6 mph - N/A   Clear
7:53 AM 57.9 °F 53.1 °F 84% 30.43 in 10.0 mi South 6.9 mph - N/A   Scattered Clouds
8:53 AM 61.0 °F 54.0 °F 78% 30.42 in 10.0 mi South 6.9 mph - N/A   Mostly Cloudy
9:53 AM 66.0 °F 52.0 °F 60% 30.40 in 10.0 mi South 12.7 mph 19.6 mph N/A   Mostly Cloudy
10:53 AM 71.1 °F 53.1 °F 53% 30.37 in 10.0 mi SSW 16.1 mph 24.2 mph N/A   Mostly Cloudy
11:53 AM 71.1 °F 51.1 °F 49% 30.33 in 10.0 mi South 17.3 mph 24.2 mph N/A   Overcast
12:53 PM 72.0 °F 51.1 °F 48% 30.30 in 10.0 mi SSW 13.8 mph 21.9 mph N/A   Mostly Cloudy
1:53 PM 73.0 °F 51.1 °F 46% 30.26 in 10.0 mi SSW 18.4 mph 23.0 mph N/A   Mostly Cloudy
2:53 PM 73.0 °F 48.9 °F 42% 30.25 in 10.0 mi SSW 15.0 mph 25.3 mph N/A   Overcast
3:53 PM 73.0 °F 48.0 °F 41% 30.23 in 10.0 mi South 13.8 mph 23.0 mph N/A   Mostly Cloudy
4:53 PM 71.1 °F 48.9 °F 45% 30.21 in 10.0 mi SSW 10.4 mph 19.6 mph N/A   Overcast
5:53 PM 70.0 °F 48.9 °F 47% 30.19 in 10.0 mi SSW 10.4 mph - N/A   Scattered Clouds
6:53 PM 66.9 °F 50.0 °F 54% 30.19 in 10.0 mi South 10.4 mph - N/A   Partly Cloudy
7:53 PM 66.0 °F 51.1 °F 59% 30.18 in 10.0 mi SSW 13.8 mph 19.6 mph N/A   Mostly Cloudy
8:53 PM 64.9 °F 52.0 °F 63% 30.17 in 10.0 mi South 13.8 mph 23.0 mph N/A   Clear
9:53 PM 64.0 °F 54.0 °F 70% 30.18 in 10.0 mi SSW 12.7 mph - N/A   Clear
10:53 PM 62.1 °F 55.0 °F 78% 30.16 in 10.0 mi South 8.1 mph - N/A   Clear
11:53 PM 61.0 °F 55.9 °F 83% 30.15 in 10.0 mi South 10.4 mph - N/A   Partly Cloudy